Lapse_Rate
5.3 5.3 5.3 5.3 5.3 5.4 5.4 5.5 5.6 5.7 5.8 5.8 5.7 5.7 5.7 5.7 5.6 5.7 5.5 5.6 5.6 5.4 5.4 5.5 5.7 5.6 5.5 5.5 5.4 5.4 5.3 4.9 4.7 4.9 5.5 5.8 6.0 6.1 6.1 6.0 5.9 5.7 5.6 5.8 6.0
5.3 5.3 5.3 5.4 5.3 5.4 5.4 5.5 5.7 5.6 5.7 5.8 5.7 5.7 5.8 5.7 5.7 5.7 5.7 5.8 5.7 5.6 5.4 5.4 5.3 5.3 5.4 5.4 5.4 5.2 5.0 4.9 4.8 4.8 5.1 5.4 5.8 5.8 5.7 5.7 5.6 5.5 5.6 5.8 5.9
5.2 5.3 5.4 5.4 5.4 5.4 5.4 5.5 5.6 5.7 5.6 5.7 5.7 5.8 5.9 5.8 5.8 5.8 5.8 5.8 5.7 5.6 5.5 5.4 5.3 5.3 5.2 5.2 5.3 5.4 5.1 4.8 4.9 4.8 4.9 5.0 5.1 5.3 5.4 5.5 5.7 6.0 6.0 6.1 6.0
5.3 5.3 5.3 5.4 5.4 5.3 5.4 5.5 5.5 5.6 5.6 5.7 5.7 5.9 5.9 5.8 5.8 5.6 5.7 5.6 5.6 5.6 5.6 5.6 5.5 5.3 5.2 5.2 5.2 5.2 5.0 5.0 4.9 4.9 4.9 4.8 4.9 4.9 5.3 5.5 5.5 5.7 6.0 6.0 5.8
5.4 5.4 5.4 5.5 5.5 5.5 5.5 5.6 5.5 5.5 5.4 5.5 5.6 5.6 5.6 5.6 5.6 5.6 5.5 5.5 5.5 5.4 5.3 5.4 5.4 5.4 5.3 5.2 5.0 4.9 4.9 4.9 4.8 4.9 4.9 4.9 4.9 5.1 5.3 5.3 5.4 5.8 6.0 6.3 6.4
5.3 5.4 5.5 5.6 5.7 5.7 5.7 5.7 5.6 5.5 5.4 5.5 5.6 5.6 5.6 5.5 5.6 5.6 5.5 5.5 5.3 5.2 5.1 5.2 5.3 5.4 5.2 5.1 5.0 4.9 4.9 4.8 4.8 4.8 4.9 4.9 5.0 5.2 5.2 5.1 5.2 5.3 5.6 5.9 6.0
5.5 5.5 5.5 5.8 5.8 5.9 5.8 5.8 5.8 5.7 5.6 5.6 5.6 5.6 5.6 5.6 5.6 5.5 5.4 5.3 5.2 5.1 5.1 4.9 4.9 5.0 4.9 5.0 5.0 5.0 4.8 4.8 4.9 4.9 4.8 4.8 5.2 5.3 5.2 5.1 5.1 5.2 5.4 5.6 5.8
5.6 5.6 5.6 5.8 6.0 6.0 6.0 6.1 5.9 5.9 5.8 5.7 5.7 5.7 5.6 5.6 5.5 5.4 5.3 5.2 5.1 5.0 4.9 4.8 4.7 4.8 4.8 4.8 4.8 4.7 4.7 4.7 5.0 4.9 5.0 4.8 5.0 5.1 5.2 5.0 5.0 5.0 5.3 5.6 5.8
5.8 5.8 5.8 5.8 5.9 6.1 6.0 6.2 6.0 5.9 5.7 5.8 5.7 5.7 5.6 5.5 5.3 5.2 5.2 5.0 5.0 4.9 4.9 4.7 4.6 4.6 4.7 4.6 4.3 4.5 4.9 4.7 4.7 5.0 5.0 4.9 4.9 5.1 5.1 5.2 5.1 5.1 5.1 5.2 5.4
6.1 6.1 6.0 6.1 6.0 6.0 6.1 6.1 6.0 5.8 5.6 5.7 5.7 5.7 5.6 5.6 5.4 5.2 5.1 5.0 4.9 4.9 4.9 4.7 4.6 4.5 4.4 4.4 4.9 4.5 4.5 4.6 4.8 5.0 4.9 5.1 5.2 5.3 5.3 5.3 5.3 5.2 5.3 5.5 5.1
6.3 6.2 6.3 6.3 6.4 6.3 6.2 6.1 6.0 5.8 5.7 5.7 5.6 5.6 5.5 5.6 5.4 5.2 5.0 4.9 5.0 5.0 4.9 4.8 4.6 4.4 4.4 4.6 4.6 4.7 4.6 4.7 5.0 5.1 4.8 5.1 5.2 5.4 5.7 5.6 5.7 5.6 5.6 5.6 5.1
6.7 6.5 6.4 6.4 6.5 6.5 6.3 6.1 6.0 5.9 5.8 5.7 5.6 5.5 5.6 5.5 5.3 5.0 5.1 5.0 4.9 4.9 5.0 4.9 4.7 4.5 4.5 4.4 4.3 4.6 4.8 4.8 5.1 5.0 5.0 4.8 5.7 5.6 6.0 5.9 5.8 5.8 5.9 5.8 5.4
6.8 6.7 6.6 6.4 6.3 6.3 6.3 6.1 5.8 5.7 5.7 5.6 5.4 5.4 5.4 5.3 5.1 5.1 5.2 5.1 5.0 5.0 5.0 4.9 4.7 4.6 4.5 4.3 4.3 4.5 4.9 5.0 4.9 4.8 5.0 5.1 5.9 6.4 6.3 6.3 6.2 5.9 6.1 6.0 6.0
6.8 6.8 6.8 6.8 6.6 6.6 6.4 6.3 6.0 5.6 5.5 5.4 5.3 5.3 5.2 5.2 5.1 5.1 5.2 5.2 5.0 5.0 5.0 4.9 4.9 4.7 4.6 4.5 4.5 4.6 4.8 4.8 4.8 4.5 5.1 4.8 6.2 6.0 6.1 6.2 6.3 6.4 6.3 6.4 6.2
6.7 6.8 6.8 6.7 6.6 6.5 6.4 6.2 6.0 5.6 5.3 5.3 5.2 5.2 5.1 5.0 4.9 5.0 5.2 5.2 5.2 5.2 5.1 5.0 5.0 4.9 4.7 4.5 4.6 4.6 4.7 5.0 5.0 4.6 4.5 4.9 4.9 5.9 6.2 6.4 6.3 6.0 6.1 6.3 6.2
6.6 6.6 6.6 6.6 6.6 6.5 6.4 6.2 5.9 5.8 5.3 5.2 5.2 5.1 5.0 5.0 4.9 4.8 5.1 5.3 5.4 5.5 5.3 5.2 5.2 5.2 4.9 4.8 4.8 4.6 5.0 5.1 5.1 4.9 5.2 5.2 5.3 6.5 6.1 6.1 6.2 6.2 5.9 6.1 6.1
6.4 6.4 6.5 6.5 6.6 6.6 6.4 6.3 6.0 5.8 5.4 5.2 5.1 5.2 5.0 5.1 5.0 5.0 5.1 5.3 5.4 5.4 5.5 5.4 5.3 5.2 5.2 5.1 5.0 4.8 4.9 5.1 5.2 5.6 6.5 5.3 5.3 6.4 6.2 6.1 6.0 6.0 6.0 6.0 6.3
6.3 6.3 6.4 6.5 6.6 6.6 6.4 6.3 6.1 5.6 5.4 5.2 5.1 5.1 5.0 5.1 5.1 5.0 4.9 4.9 5.0 5.0 5.1 5.1 5.0 5.2 5.2 5.0 4.8 4.8 4.6 4.8 5.2 5.8 6.3 5.3 5.9 6.6 6.3 6.2 6.1 6.1 6.0 6.1 6.0
6.3 6.3 6.4 6.5 6.6 6.6 6.4 6.2 5.7 5.3 5.1 5.1 5.1 5.1 5.1 4.9 5.0 4.9 4.8 4.8 4.8 4.8 4.8 4.9 5.0 5.2 5.3 5.1 4.9 4.9 4.6 4.6 4.2 4.4 4.3 5.7 5.8 6.1 6.5 6.4 6.4 6.1 6.0 6.0 6.0
6.2 6.3 6.4 6.5 6.5 6.4 6.3 6.0 5.6 5.4 5.3 5.2 5.2 5.2 5.0 5.1 5.0 4.9 4.8 4.8 4.7 4.7 4.6 4.8 4.8 5.5 5.4 5.2 5.1 4.9 4.9 4.7 4.9 5.5 5.3 5.9 5.8 5.9 6.2 6.0 6.1 5.9 5.9 6.0 6.0
6.2 6.3 6.3 6.4 6.4 6.2 6.1 5.8 5.7 5.6 5.5 5.3 5.2 5.1 5.1 5.1 5.1 5.0 4.9 4.9 4.7 4.6 4.6 4.4 4.8 5.7 5.4 5.3 5.0 4.8 4.9 4.9 4.8 4.9 5.9 5.2 6.7 6.1 6.3 6.2 6.3 6.1 5.9 5.8 5.9
6.2 6.3 6.3 6.4 6.2 6.1 5.9 5.8 5.8 5.6 5.4 5.4 5.4 5.3 5.1 5.0 5.1 5.1 5.0 4.8 4.7 4.6 4.3 4.5 4.3 4.5 5.3 5.4 5.6 5.4 5.4 5.1 5.2 5.1 5.0 4.9 5.4 6.5 6.3 6.2 6.1 5.9 5.7 5.6 5.5
6.1 6.2 6.1 6.1 6.0 5.9 5.9 5.9 5.8 5.8 5.7 5.6 5.5 5.4 5.2 5.1 5.1 5.3 5.3 5.2 5.0 4.7 4.5 4.4 4.1 4.4 5.5 5.6 5.4 5.2 5.2 5.1 5.2 5.2 5.1 5.6 6.2 6.8 6.3 6.5 6.0 5.7 5.6 5.5 5.4
6.0 6.0 6.0 5.9 5.9 5.8 5.8 5.6 5.7 5.8 5.9 5.7 5.5 5.4 5.3 5.2 5.0 5.2 5.1 5.1 5.1 5.1 5.1 4.6 4.6 4.6 5.2 5.3 4.8 5.2 5.2 4.9 5.1 5.0 5.3 5.5 5.5 7.7 6.5 5.8 5.7 6.0 5.9 5.8 5.9
6.0 6.0 6.1 6.0 6.1 6.0 5.9 5.9 5.8 5.8 5.9 5.8 5.5 5.4 5.2 5.0 4.9 5.0 5.2 5.2 5.6 5.6 5.2 4.8 4.6 4.5 4.6 4.8 5.0 6.2 6.8 6.3 5.7 6.8 5.0 7.2 5.9 7.3 6.5 6.0 6.0 5.9 5.8 5.9 6.0
6.0 6.1 6.1 6.1 6.1 6.0 6.1 6.0 6.0 5.8 5.7 5.9 5.6 5.3 5.0 5.0 4.7 4.7 4.8 5.2 5.4 5.8 5.4 5.0 4.8 4.5 4.9 5.4 5.6 6.3 6.3 6.7 7.0 7.0 6.0 6.6 6.6 6.7 6.4 6.3 6.3 6.0 5.9 5.9 6.0
5.9 5.9 5.9 5.9 5.9 5.9 5.8 5.7 5.8 6.0 6.1 6.0 5.5 5.3 5.3 5.1 4.9 5.0 5.3 5.4 5.3 5.3 5.0 4.9 4.9 4.6 4.4 4.6 4.3 5.5 7.4 7.1 6.5 7.0 6.8 6.7 6.7 6.4 6.3 6.3 6.1 6.2 6.1 6.0 6.0
Wind_Speed
20 20 19 18 16 15 14 12 9 7 5 4 4 6 7 9 3 7 9 7 10 17 13 3 4 3 5 5 5 1 2 4 3 4 4 2 2 3 1 3 3 7 7 14 18
20 20 19 17 16 16 14 12 9 7 4 3 3 3 3 6 5 13 6 11 12 11 5 6 7 7 4 4 3 3 3 3 3 5 4 4 2 3 3 3 3 8 12 14 15
19 20 19 17 17 16 14 11 8 7 4 2 3 3 1 1 1 5 12 13 11 8 0 1 1 3 6 4 4 3 4 6 4 7 6 5 4 3 6 2 10 17 18 16 15
21 22 22 19 18 16 13 9 7 5 2 0 1 1 1 2 1 4 14 12 8 6 2 4 2 3 4 4 3 7 5 2 7 6 4 4 6 5 7 4 9 12 14 13 15
23 23 23 21 19 18 14 8 5 5 2 3 2 1 3 4 5 6 13 10 4 3 7 3 8 3 5 4 5 8 5 4 6 5 5 7 3 3 4 5 6 9 12 14 13
24 25 25 23 20 19 14 5 5 4 4 4 2 2 1 4 5 8 10 5 9 5 7 8 4 4 7 4 3 3 6 9 6 5 5 3 2 3 2 6 7 11 14 13 14
24 25 25 24 20 20 14 3 4 3 3 3 4 1 10 5 4 7 8 4 5 4 4 4 2 1 2 5 3 7 6 4 7 5 2 3 6 6 1 4 7 10 12 14 15
24 25 27 26 22 20 12 2 4 3 3 4 3 1 4 2 3 5 7 3 4 5 4 2 4 7 3 5 3 1 2 4 6 6 3 4 9 5 2 4 6 8 8 11 13
25 28 29 28 26 22 8 2 4 3 4 4 1 2 3 1 2 4 5 4 3 2 4 3 2 4 2 2 3 2 4 5 3 7 3 10 7 5 2 1 3 4 7 9 10
24 27 27 27 23 23 4 1 4 1 2 1 2 2 3 5 4 4 3 2 2 1 1 3 2 1 2 3 3 5 6 3 7 4 8 10 14 6 5 3 0 3 6 6 9
23 24 26 25 19 21 2 1 1 2 9 4 1 2 3 6 2 5 4 3 2 3 3 4 2 6 5 2 2 3 6 8 8 2 5 11 14 11 10 6 4 1 4 6 7
25 24 25 26 12 20 5 5 1 2 6 1 1 1 1 3 3 10 7 3 4 4 4 1 4 3 1 0 3 5 9 6 5 2 4 11 16 9 11 6 3 0 4 7 8
24 26 28 27 7 5 9 3 1 2 2 3 2 2 3 4 3 8 7 2 5 4 5 2 3 2 2 3 7 9 5 5 6 8 8 10 11 6 7 4 3 1 1 4 7
23 23 27 24 1 1 4 3 1 2 2 8 4 3 2 2 2 2 4 3 2 4 2 2 3 3 4 3 5 9 2 5 11 7 6 3 6 4 6 9 6 4 1 3 6
21 21 22 12 1 3 3 3 2 2 1 6 3 3 3 4 5 5 2 1 3 3 3 3 4 4 2 4 2 5 6 8 4 6 6 3 4 3 3 8 11 7 4 1 4
20 24 14 2 2 2 3 2 2 2 1 2 4 7 3 5 4 7 4 5 1 0 1 1 0 1 3 2 2 9 7 4 2 2 3 2 3 4 3 2 8 9 5 1 3
21 16 4 1 2 2 1 2 1 3 1 5 3 5 1 6 4 8 5 8 6 4 7 5 0 1 1 4 3 10 8 3 2 2 3 2 5 8 1 1 4 11 9 5 2
24 4 3 2 1 1 2 2 4 0 1 1 2 2 2 7 2 7 2 3 5 3 2 5 1 4 3 2 4 4 4 3 5 5 10 1 5 1 2 3 4 7 8 7 5
14 2 0 1 1 2 2 5 2 0 2 5 1 2 1 2 4 5 4 3 3 6 6 6 3 1 1 1 3 2 1 2 4 2 4 3 5 4 3 4 5 8 9 9 7
2 2 1 7 3 2 2 3 2 0 1 1 3 2 3 5 5 5 3 2 1 2 3 1 6 1 1 2 1 2 2 2 1 5 6 6 8 9 4 8 10 12 14 11 8
0 1 1 5 3 2 4 2 2 1 1 1 0 2 1 3 2 3 2 1 1 1 1 0 2 1 3 3 1 1 2 2 2 3 4 6 7 1 3 3 9 13 14 13 13
0 1 2 1 2 2 2 1 1 1 1 0 0 1 1 2 3 2 2 3 3 1 2 1 2 5 9 2 1 3 3 4 3 2 4 4 9 3 4 5 6 8 13 15 13
2 2 1 3 2 2 2 2 1 2 1 1 1 1 0 1 3 3 2 1 2 2 1 3 2 6 3 3 2 3 2 3 3 2 10 8 7 4 4 5 6 9 12 15 14
0 0 3 4 2 3 2 1 1 0 1 1 1 1 1 3 3 3 3 1 2 3 0 4 3 8 9 13 10 16 12 8 10 9 14 19 25 26 18 17 14 11 11 14 15
3 2 1 2 3 3 1 1 1 1 1 1 2 5 4 3 3 4 3 3 3 1 2 2 5 8 14 17 18 21 22 17 17 23 12 25 18 26 21 18 16 12 9 14 16
1 2 1 2 1 3 1 3 3 1 3 3 4 3 5 5 7 12 9 8 8 3 4 2 4 2 9 16 15 20 17 17 17 21 20 25 27 24 18 4 5 5 9 14 15
2 1 1 1 1 1 2 3 4 2 4 4 5 3 7 13 11 12 13 12 12 6 6 4 3 1 5 1 8 13 13 8 4 8 6 9 12 3 5 6 6 5 8 12 14
Wind_Direction
3 0 357 351 348 344 338 337 334 327 307 291 298 312 328 336 350 60 41 333 321 328 335 321 46 51 59 69 41 305 99 122 116 162 119 88 209 73 301 2 47 22 12 325 326
2 0 359 353 348 345 339 336 332 331 312 257 237 257 308 340 67 55 350 337 334 337 343 17 44 53 69 46 38 26 110 97 70 109 125 84 84 5 302 339 11 346 331 334 332
1 1 1 355 350 349 344 338 333 334 322 253 214 214 245 289 140 24 348 339 345 345 218 47 82 61 70 54 21 42 100 125 80 116 124 119 103 46 348 15 1 331 332 335 334
359 359 360 356 349 354 349 338 334 342 340 328 192 190 117 235 46 8 340 335 341 11 129 55 58 74 71 77 46 110 91 112 136 134 140 164 127 104 53 354 334 333 335 335 342
357 358 358 357 348 351 352 341 354 5 73 107 106 82 270 76 50 343 339 347 350 8 41 48 56 88 99 95 92 105 123 88 126 140 124 137 108 114 53 8 354 353 358 349 342
354 353 355 354 350 349 356 360 23 49 73 79 43 303 224 78 345 341 342 351 16 24 36 33 66 88 91 70 22 82 122 124 142 146 150 173 128 211 117 359 4 6 3 357 356
353 352 352 352 352 349 353 41 49 60 62 42 5 272 68 71 351 351 8 8 4 17 56 40 70 34 112 110 97 131 135 163 185 188 174 180 216 219 42 355 13 11 10 4 3
350 351 351 352 348 350 359 39 38 14 356 352 353 260 71 349 344 16 359 11 28 31 70 48 83 85 29 123 98 168 216 250 154 183 155 230 281 165 55 351 17 10 11 10 7
352 351 350 350 348 352 8 12 4 327 335 343 274 341 64 336 13 346 358 356 339 56 50 73 52 65 141 194 165 176 305 274 259 207 168 215 288 147 107 6 347 7 15 13 356
352 349 347 348 348 350 10 357 359 18 338 144 109 156 57 348 322 333 343 359 16 308 194 39 45 95 48 342 358 327 308 278 278 177 218 237 258 187 182 182 255 341 19 0 5
352 347 345 348 346 359 13 284 237 80 41 55 22 52 349 330 262 5 359 312 340 48 14 27 48 21 4 4 4 306 288 286 286 258 268 262 269 226 196 193 194 309 16 4 359
353 348 343 345 350 14 45 66 50 1 91 78 42 357 296 339 325 17 348 11 25 35 332 192 53 11 347 197 298 298 308 314 282 258 266 295 270 245 201 205 182 276 354 3 355
350 346 340 341 349 38 61 60 293 202 81 59 43 19 342 343 45 351 360 353 33 40 20 28 44 344 315 308 324 332 300 335 318 312 253 293 269 206 205 185 168 135 340 10 4
347 343 339 339 85 5 56 342 249 237 132 6 7 38 313 340 83 321 10 350 51 30 2 9 359 348 335 331 334 325 12 316 310 310 318 339 300 193 189 207 209 185 286 19 10
344 341 340 12 42 48 347 315 184 240 102 348 351 334 355 52 315 35 11 14 48 19 296 24 351 353 339 0 300 316 318 301 300 289 304 186 268 90 165 219 215 200 176 114 40
344 339 343 14 62 60 333 162 235 187 323 24 334 356 1 25 19 319 15 49 59 137 15 357 264 255 339 305 253 300 287 270 206 261 253 63 314 297 217 250 196 177 164 129 43
340 342 27 351 23 4 160 228 151 53 357 3 343 356 5 354 10 15 18 33 24 354 8 329 23 63 339 303 200 342 333 326 282 294 310 174 272 277 319 169 236 182 167 164 141
341 357 37 57 1 321 225 207 76 66 352 11 321 309 46 355 44 355 20 51 60 7 333 353 329 360 14 29 329 6 350 16 321 325 304 309 246 314 81 103 119 151 161 166 177
339 353 335 43 252 200 248 52 52 120 331 329 308 7 42 17 342 342 35 23 13 0 13 340 281 335 37 336 302 58 360 11 271 251 271 271 274 185 175 193 176 177 185 199 191
342 325 330 337 182 225 67 105 128 197 323 303 4 347 328 340 339 3 5 57 57 4 305 86 290 159 278 190 101 312 121 256 207 308 300 280 293 269 225 223 209 211 209 200 197
332 197 77 343 203 47 73 89 154 156 236 357 230 275 288 315 322 329 340 119 217 182 4 171 257 242 271 207 277 204 199 187 281 259 289 311 289 345 272 209 220 226 212 201 195
91 185 33 262 47 42 80 111 147 140 36 116 132 267 277 325 299 292 282 249 194 232 329 46 309 283 285 358 355 274 255 220 267 251 251 289 273 164 253 246 240 234 214 204 201
34 326 25 295 92 97 118 119 138 166 179 169 202 244 166 270 291 231 256 339 170 249 352 166 228 299 275 158 112 244 200 248 301 326 263 266 264 177 209 239 232 231 211 199 189
159 126 31 55 28 91 134 128 158 63 195 193 153 145 199 245 222 290 265 287 177 223 318 179 232 240 274 296 301 283 265 246 249 272 261 246 271 277 270 283 283 257 228 200 188
10 92 44 82 68 89 88 127 162 228 217 208 204 226 207 255 244 231 241 278 218 166 158 217 244 239 258 274 272 269 270 260 243 244 256 270 273 277 293 300 300 300 232 196 191
114 153 96 103 152 150 188 188 189 235 210 203 225 190 210 236 239 283 280 285 263 140 174 190 263 243 279 261 269 269 275 259 250 260 251 261 271 280 291 295 285 286 211 204 197
128 95 265 63 126 203 191 176 196 197 214 240 219 237 244 250 261 275 271 264 255 251 207 198 225 290 270 199 298 277 262 216 198 229 235 250 272 296 263 269 295 293 229 217 201